Time,TemperatureF,DewpointF,PressureIn,WindDirection,WindDirectionDegrees,WindSpeedMPH,WindSpeedGustMPH,Humidity,HourlyPrecipIn,Conditions,Clouds,dailyrainin,SoftwareType,DateUTC
2013-08-23 00:01:00,74.7,63.8,28.47,South,179,0.0,0.0,69,0.00,,---,0.00,VWS V14.01,2013-08-23 05:01:00,
2013-08-23 00:07:00,74.7,63.8,28.47,South,179,0.0,0.0,69,0.00,,---,0.00,VWS V14.01,2013-08-23 05:07:00,
2013-08-23 00:12:00,74.5,63.7,28.47,South,189,0.0,0.0,69,0.00,,---,0.00,VWS V14.01,2013-08-23 05:12:00,
2013-08-23 00:17:00,74.3,63.9,28.47,SSE,158,0.0,0.0,70,0.00,,---,0.00,VWS V14.01,2013-08-23 05:17:00,
2013-08-23 00:22:00,74.3,63.9,28.47,ESE,122,0.0,0.0,70,0.00,,---,0.00,VWS V14.01,2013-08-23 05:22:00,
2013-08-23 00:27:00,74.1,63.7,28.47,SSE,160,0.0,0.0,70,0.00,,---,0.00,VWS V14.01,2013-08-23 05:27:00,
2013-08-23 00:32:00,74.1,64.1,28.47,SSE,160,0.0,0.0,71,0.00,,---,0.00,VWS V14.01,2013-08-23 05:32:00,
2013-08-23 00:37:00,73.9,64.0,28.47,SSE,160,0.0,0.0,71,0.00,,---,0.00,VWS V14.01,2013-08-23 05:37:00,
2013-08-23 00:42:00,73.9,64.0,28.47,SSW,195,0.0,0.0,71,0.00,,---,0.00,VWS V14.01,2013-08-23 05:42:00,
2013-08-23 00:47:00,73.8,64.2,28.47,SSW,195,0.0,0.0,72,0.00,,---,0.00,VWS V14.01,2013-08-23 05:47:00,
2013-08-23 00:52:00,73.8,64.2,28.47,SSW,195,0.0,0.0,72,0.00,,---,0.00,VWS V14.01,2013-08-23 05:52:00,
2013-08-23 00:58:00,73.6,64.4,28.47,South,191,0.0,0.0,73,0.00,,---,0.00,VWS V14.01,2013-08-23 05:58:00,
2013-08-23 01:03:00,73.6,64.4,28.47,South,191,0.0,0.0,73,0.00,,---,0.00,VWS V14.01,2013-08-23 06:03:00,
2013-08-23 01:08:00,73.4,64.2,28.47,South,191,0.0,0.0,73,0.00,,---,0.00,VWS V14.01,2013-08-23 06:08:00,
2013-08-23 01:13:00,73.2,64.4,28.47,South,191,0.0,0.0,74,0.00,,---,0.00,VWS V14.01,2013-08-23 06:13:00,
2013-08-23 01:18:00,73.2,64.4,28.47,South,191,0.0,0.0,74,0.00,,---,0.00,VWS V14.01,2013-08-23 06:18:00,
2013-08-23 01:23:00,73.0,64.7,28.47,South,191,0.0,0.0,75,0.00,,---,0.00,VWS V14.01,2013-08-23 06:23:00,
2013-08-23 01:28:00,72.9,64.5,28.47,South,191,0.0,0.0,75,0.00,,---,0.00,VWS V14.01,2013-08-23 06:28:00,
2013-08-23 01:33:00,72.9,64.9,28.47,South,191,0.0,0.0,76,0.00,,---,0.00,VWS V14.01,2013-08-23 06:33:00,
2013-08-23 01:38:00,72.7,64.7,28.47,South,191,0.0,0.0,76,0.00,,---,0.00,VWS V14.01,2013-08-23 06:38:00,
2013-08-23 01:44:00,72.7,64.7,28.47,South,191,0.0,0.0,76,0.00,,---,0.00,VWS V14.01,2013-08-23 06:44:00,
2013-08-23 01:49:00,72.5,64.9,28.47,South,191,0.0,0.0,77,0.00,,---,0.00,VWS V14.01,2013-08-23 06:49:00,
2013-08-23 01:54:00,72.3,64.7,28.47,South,191,0.0,0.0,77,0.00,,---,0.00,VWS V14.01,2013-08-23 06:54:00,
2013-08-23 01:59:00,72.1,64.5,28.47,South,191,0.0,0.0,77,0.00,,---,0.00,VWS V14.01,2013-08-23 06:59:00,
2013-08-23 02:04:00,72.1,64.9,28.47,South,191,0.0,0.0,78,0.00,,---,0.00,VWS V14.01,2013-08-23 07:04:00,
2013-08-23 02:09:00,72.1,64.9,28.47,South,191,0.0,0.0,78,0.00,,---,0.00,VWS V14.01,2013-08-23 07:09:00,
2013-08-23 02:14:00,72.1,64.9,28.47,South,191,0.0,0.0,78,0.00,,---,0.00,VWS V14.01,2013-08-23 07:14:00,
2013-08-23 02:19:00,72.0,65.1,28.47,South,191,0.0,0.0,79,0.00,,---,0.00,VWS V14.01,2013-08-23 07:19:00,
2013-08-23 02:24:00,72.0,65.1,28.47,South,191,0.0,0.0,79,0.00,,---,0.00,VWS V14.01,2013-08-23 07:24:00,
2013-08-23 02:29:00,72.0,65.5,28.47,South,191,0.0,0.0,80,0.00,,---,0.00,VWS V14.01,2013-08-23 07:29:00,
2013-08-23 02:35:00,72.0,65.5,28.47,South,191,0.0,0.0,80,0.00,,---,0.00,VWS V14.01,2013-08-23 07:35:00,
2013-08-23 02:40:00,72.0,65.5,28.47,South,191,0.0,0.0,80,0.00,,---,0.00,VWS V14.01,2013-08-23 07:40:00,
2013-08-23 02:45:00,72.0,65.5,28.47,South,191,0.0,0.0,80,0.00,,---,0.00,VWS V14.01,2013-08-23 07:45:00,
2013-08-23 02:50:00,72.0,65.5,28.47,South,191,0.0,0.0,80,0.00,,---,0.00,VWS V14.01,2013-08-23 07:50:00,
2013-08-23 02:55:00,72.0,65.8,28.47,South,191,0.0,0.0,81,0.00,,---,0.00,VWS V14.01,2013-08-23 07:55:00,
2013-08-23 03:00:00,72.0,65.8,28.47,South,191,0.0,0.0,81,0.00,,---,0.00,VWS V14.01,2013-08-23 08:00:00,
2013-08-23 03:05:00,72.0,65.8,28.47,South,191,0.0,0.0,81,0.00,,---,0.00,VWS V14.01,2013-08-23 08:05:00,
2013-08-23 03:10:00,72.1,66.0,28.47,South,191,0.0,0.0,81,0.00,,---,0.00,VWS V14.01,2013-08-23 08:10:00,
2013-08-23 03:15:00,72.1,66.0,28.47,South,191,0.0,0.0,81,0.00,,---,0.00,VWS V14.01,2013-08-23 08:15:00,
2013-08-23 03:21:00,72.3,66.5,28.47,South,191,0.0,0.0,82,0.00,,---,0.00,VWS V14.01,2013-08-23 08:21:00,
2013-08-23 03:26:00,72.5,66.7,28.47,South,191,0.0,0.0,82,0.00,,---,0.00,VWS V14.01,2013-08-23 08:26:00,
2013-08-23 03:31:00,72.5,66.7,28.47,South,191,0.0,0.0,82,0.00,,---,0.00,VWS V14.01,2013-08-23 08:31:00,
2013-08-23 03:36:00,72.7,66.9,28.47,South,191,0.0,0.0,82,0.00,,---,0.00,VWS V14.01,2013-08-23 08:36:00,
2013-08-23 03:41:00,72.7,67.2,28.47,South,191,0.0,0.0,83,0.00,,---,0.00,VWS V14.01,2013-08-23 08:41:00,
2013-08-23 03:46:00,72.9,67.4,28.47,South,191,0.0,0.0,83,0.00,,---,0.00,VWS V14.01,2013-08-23 08:46:00,
2013-08-23 03:51:00,72.9,67.4,28.47,South,191,0.0,0.0,83,0.00,,---,0.00,VWS V14.01,2013-08-23 08:51:00,
2013-08-23 03:56:00,72.9,67.4,28.47,South,191,0.0,0.0,83,0.00,,---,0.00,VWS V14.01,2013-08-23 08:56:00,
2013-08-23 04:01:00,72.9,67.4,28.47,South,191,0.0,0.0,83,0.00,,---,0.00,VWS V14.01,2013-08-23 09:01:00,
2013-08-23 04:06:00,72.9,67.4,28.47,South,191,0.0,0.0,83,0.00,,---,0.00,VWS V14.01,2013-08-23 09:06:00,
2013-08-23 04:12:00,72.9,67.4,28.47,South,191,0.0,0.0,83,0.00,,---,0.00,VWS V14.01,2013-08-23 09:12:00,
2013-08-23 04:17:00,72.9,67.4,28.47,South,191,0.0,0.0,83,0.00,,---,0.00,VWS V14.01,2013-08-23 09:17:00,
2013-08-23 04:22:00,72.9,67.4,28.47,South,191,0.0,0.0,83,0.00,,---,0.00,VWS V14.01,2013-08-23 09:22:00,
2013-08-23 04:27:00,72.7,67.2,28.47,South,191,0.0,0.0,83,0.00,,---,0.00,VWS V14.01,2013-08-23 09:27:00,
2013-08-23 04:32:00,72.5,67.1,28.47,South,191,0.0,0.0,83,0.00,,---,0.00,VWS V14.01,2013-08-23 09:32:00,
2013-08-23 04:37:00,72.3,66.5,28.47,South,191,0.0,0.0,82,0.00,,---,0.00,VWS V14.01,2013-08-23 09:37:00,
2013-08-23 04:42:00,72.3,66.9,28.47,South,191,0.0,0.0,83,0.00,,---,0.00,VWS V14.01,2013-08-23 09:42:00,
2013-08-23 04:47:00,72.1,66.7,28.47,South,191,0.0,0.0,83,0.00,,---,0.00,VWS V14.01,2013-08-23 09:47:00,
2013-08-23 04:52:00,72.1,66.7,28.47,South,191,0.0,0.0,83,0.00,,---,0.00,VWS V14.01,2013-08-23 09:52:00,
2013-08-23 04:57:00,72.0,66.5,28.47,South,191,0.0,0.0,83,0.00,,---,0.00,VWS V14.01,2013-08-23 09:57:00,
2013-08-23 05:03:00,71.8,66.3,28.47,South,191,0.0,0.0,83,0.00,,---,0.00,VWS V14.01,2013-08-23 10:03:00,
2013-08-23 05:08:00,71.6,66.2,28.47,South,191,0.0,0.0,83,0.00,,---,0.00,VWS V14.01,2013-08-23 10:08:00,
2013-08-23 05:13:00,71.6,66.2,28.47,South,191,0.0,0.0,83,0.00,,---,0.00,VWS V14.01,2013-08-23 10:13:00,
2013-08-23 05:18:00,71.6,66.2,28.47,South,191,0.0,0.0,83,0.00,,---,0.00,VWS V14.01,2013-08-23 10:18:00,
2013-08-23 05:23:00,71.4,66.3,28.47,South,191,0.0,0.0,84,0.00,,---,0.00,VWS V14.01,2013-08-23 10:23:00,
2013-08-23 05:28:00,71.4,66.3,28.47,South,191,0.0,0.0,84,0.00,,---,0.00,VWS V14.01,2013-08-23 10:28:00,
2013-08-23 05:33:00,71.2,66.2,28.47,South,191,0.0,0.0,84,0.00,,---,0.00,VWS V14.01,2013-08-23 10:33:00,
2013-08-23 05:38:00,71.2,66.5,28.47,South,191,0.0,0.0,85,0.00,,---,0.00,VWS V14.01,2013-08-23 10:38:00,
2013-08-23 05:43:00,71.1,66.3,28.47,South,191,0.0,0.0,85,0.00,,---,0.00,VWS V14.01,2013-08-23 10:43:00,
2013-08-23 05:48:00,71.1,66.3,28.47,South,191,0.0,0.0,85,0.00,,---,0.00,VWS V14.01,2013-08-23 10:48:00,
2013-08-23 05:53:00,71.1,66.3,28.47,South,191,0.0,0.0,85,0.00,,---,0.00,VWS V14.01,2013-08-23 10:53:00,
2013-08-23 05:59:00,70.9,66.2,28.47,South,191,0.0,0.0,85,0.00,,---,0.00,VWS V14.01,2013-08-23 10:59:00,
2013-08-23 06:04:00,70.9,66.2,28.47,South,191,0.0,0.0,85,0.00,,---,0.00,VWS V14.01,2013-08-23 11:04:00,
2013-08-23 06:09:00,70.9,66.5,28.47,South,191,0.0,0.0,86,0.00,,---,0.00,VWS V14.01,2013-08-23 11:09:00,
2013-08-23 06:14:00,70.9,66.5,28.47,South,191,0.0,0.0,86,0.00,,---,0.00,VWS V14.01,2013-08-23 11:14:00,
2013-08-23 06:19:00,70.9,66.5,28.47,South,191,0.0,0.0,86,0.00,,---,0.00,VWS V14.01,2013-08-23 11:19:00,
2013-08-23 06:24:00,70.9,66.5,28.47,South,191,0.0,0.0,86,0.00,,---,0.00,VWS V14.01,2013-08-23 11:24:00,
2013-08-23 06:29:00,71.1,66.7,28.47,South,191,0.0,0.0,86,0.00,,---,0.00,VWS V14.01,2013-08-23 11:29:00,
2013-08-23 06:34:00,71.1,67.0,28.47,South,191,0.0,0.0,87,0.00,,---,0.00,VWS V14.01,2013-08-23 11:34:00,
2013-08-23 06:39:00,71.1,67.0,28.47,ENE,69,0.0,0.0,87,0.00,,---,0.00,VWS V14.01,2013-08-23 11:39:00,
2013-08-23 06:44:00,71.2,67.2,28.47,ENE,69,0.0,0.0,87,0.00,,---,0.00,VWS V14.01,2013-08-23 11:44:00,
2013-08-23 06:50:00,71.2,67.2,28.47,ENE,69,0.0,0.0,87,0.00,,---,0.00,VWS V14.01,2013-08-23 11:50:00,
2013-08-23 06:55:00,71.4,67.7,28.47,ENE,69,0.0,0.0,88,0.00,,---,0.00,VWS V14.01,2013-08-23 11:55:00,
2013-08-23 07:00:00,71.4,67.7,28.47,ENE,69,0.0,0.0,88,0.00,,---,0.00,VWS V14.01,2013-08-23 12:00:00,
2013-08-23 07:05:00,71.2,67.5,28.47,ENE,69,0.0,0.0,88,0.00,,---,0.00,VWS V14.01,2013-08-23 12:05:00,
2013-08-23 07:10:00,71.2,67.5,28.47,ENE,69,0.0,0.0,88,0.00,,---,0.00,VWS V14.01,2013-08-23 12:10:00,
2013-08-23 07:15:00,71.2,67.5,28.47,ENE,69,0.0,0.0,88,0.00,,---,0.00,VWS V14.01,2013-08-23 12:15:00,
2013-08-23 07:20:00,71.2,67.5,28.47,ENE,69,0.0,0.0,88,0.00,,---,0.00,VWS V14.01,2013-08-23 12:20:00,
2013-08-23 07:25:00,71.2,67.5,28.47,ENE,69,0.0,0.0,88,0.00,,---,0.00,VWS V14.01,2013-08-23 12:25:00,
2013-08-23 07:30:00,71.4,67.7,28.47,ENE,69,0.0,0.0,88,0.00,,---,0.00,VWS V14.01,2013-08-23 12:30:00,
2013-08-23 07:35:00,71.6,67.9,28.47,NE,38,0.0,0.0,88,0.00,,---,0.00,VWS V14.01,2013-08-23 12:35:00,
2013-08-23 07:41:00,71.6,67.9,28.47,NE,38,0.0,0.0,88,0.00,,---,0.00,VWS V14.01,2013-08-23 12:41:00,
2013-08-23 07:46:00,71.8,68.0,28.47,NE,38,0.0,0.0,88,0.00,,---,0.00,VWS V14.01,2013-08-23 12:46:00,
2013-08-23 07:51:00,71.8,68.0,28.47,ENE,58,0.0,0.0,88,0.00,,---,0.00,VWS V14.01,2013-08-23 12:51:00,
2013-08-23 07:56:00,72.0,68.2,28.47,ESE,117,0.0,0.0,88,0.00,,---,0.00,VWS V14.01,2013-08-23 12:56:00,
2013-08-23 08:01:00,72.0,68.2,28.47,NE,35,0.0,0.0,88,0.00,,---,0.00,VWS V14.01,2013-08-23 13:01:00,
2013-08-23 08:06:00,72.0,68.2,28.47,NE,35,0.0,0.0,88,0.00,,---,0.00,VWS V14.01,2013-08-23 13:06:00,
2013-08-23 08:11:00,72.1,68.4,28.47,NE,35,0.0,0.0,88,0.00,,---,0.00,VWS V14.01,2013-08-23 13:11:00,
2013-08-23 08:16:00,72.1,68.4,28.47,NE,35,0.0,0.0,88,0.00,,---,0.00,VWS V14.01,2013-08-23 13:16:00,
2013-08-23 08:21:00,72.3,68.6,28.47,SSE,152,0.0,4.0,88,0.00,,---,0.00,VWS V14.01,2013-08-23 13:21:00,
2013-08-23 08:27:00,72.5,68.4,28.47,SSE,154,0.0,4.0,87,0.00,,---,0.00,VWS V14.01,2013-08-23 13:27:00,
2013-08-23 08:32:00,72.7,68.6,28.47,ESE,113,0.0,4.0,87,0.00,,---,0.00,VWS V14.01,2013-08-23 13:32:00,
2013-08-23 08:37:00,73.2,69.1,28.47,SSE,149,0.0,4.0,87,0.00,,---,0.00,VWS V14.01,2013-08-23 13:37:00,
2013-08-23 08:42:00,74.3,70.2,28.47,ESE,106,0.0,4.0,87,0.00,,---,0.00,VWS V14.01,2013-08-23 13:42:00,
2013-08-23 08:47:00,75.0,70.6,28.47,North,2,0.0,4.0,86,0.00,,---,0.00,VWS V14.01,2013-08-23 13:47:00,
2013-08-23 08:52:00,75.9,71.1,28.47,NE,56,0.0,4.0,85,0.00,,---,0.00,VWS V14.01,2013-08-23 13:52:00,
2013-08-23 08:57:00,76.5,70.6,28.47,East,93,0.0,4.0,82,0.00,,---,0.00,VWS V14.01,2013-08-23 13:57:00,
2013-08-23 09:02:00,77.2,70.5,28.47,ENE,65,0.0,3.6,80,0.00,,---,0.00,VWS V14.01,2013-08-23 14:02:00,
2013-08-23 09:07:00,77.7,69.9,28.47,South,176,3.6,5.4,77,0.00,,---,0.00,VWS V14.01,2013-08-23 14:07:00,
2013-08-23 09:12:00,78.3,70.1,28.47,SE,125,2.2,5.4,76,0.00,,---,0.00,VWS V14.01,2013-08-23 14:12:00,
2013-08-23 09:18:00,78.8,69.4,28.47,SSE,154,0.0,6.3,73,0.00,,---,0.00,VWS V14.01,2013-08-23 14:18:00,
2013-08-23 09:23:00,79.3,68.3,28.47,SE,137,4.9,6.3,69,0.00,,---,0.00,VWS V14.01,2013-08-23 14:23:00,
2013-08-23 09:28:00,79.7,68.2,28.47,South,179,3.1,6.3,68,0.00,,---,0.00,VWS V14.01,2013-08-23 14:28:00,
2013-08-23 09:33:00,80.2,67.9,28.47,SSE,157,3.6,6.3,66,0.00,,---,0.00,VWS V14.01,2013-08-23 14:33:00,
2013-08-23 09:38:00,81.0,68.5,28.47,SE,135,4.9,6.3,66,0.00,,---,0.00,VWS V14.01,2013-08-23 14:38:00,
2013-08-23 09:43:00,81.5,67.7,28.47,SSE,162,3.1,6.3,63,0.00,,---,0.00,VWS V14.01,2013-08-23 14:43:00,
2013-08-23 09:48:00,81.9,67.6,28.47,ESE,105,2.7,6.3,62,0.00,,---,0.00,VWS V14.01,2013-08-23 14:48:00,
2013-08-23 09:53:00,82.2,67.9,28.47,South,174,0.0,6.3,62,0.00,,---,0.00,VWS V14.01,2013-08-23 14:53:00,
2013-08-23 09:58:00,82.8,67.9,28.47,SSE,165,4.5,6.3,61,0.00,,---,0.00,VWS V14.01,2013-08-23 14:58:00,
2013-08-23 10:03:00,83.3,67.5,28.47,South,174,3.6,6.3,59,0.00,,---,0.00,VWS V14.01,2013-08-23 15:03:00,
2013-08-23 10:09:00,83.5,67.2,28.47,SSE,163,4.0,6.3,58,0.00,,---,0.00,VWS V14.01,2013-08-23 15:09:00,
2013-08-23 10:14:00,83.8,67.0,28.47,SSE,159,3.1,6.3,57,0.00,,---,0.00,VWS V14.01,2013-08-23 15:14:00,
2013-08-23 10:19:00,84.4,67.5,28.47,South,171,5.8,6.3,57,0.00,,---,0.00,VWS V14.01,2013-08-23 15:19:00,
2013-08-23 10:24:00,84.9,68.0,28.47,ENE,63,0.0,6.3,57,0.00,,---,0.00,VWS V14.01,2013-08-23 15:24:00,
2013-08-23 10:29:00,85.3,67.3,28.47,SE,135,4.0,6.3,55,0.00,,---,0.00,VWS V14.01,2013-08-23 15:29:00,
2013-08-23 10:34:00,85.8,67.3,28.47,SE,144,3.1,6.3,54,0.00,,---,0.00,VWS V14.01,2013-08-23 15:34:00,
2013-08-23 10:39:00,86.5,67.9,28.47,SSE,156,2.2,6.3,54,0.00,,---,0.00,VWS V14.01,2013-08-23 15:39:00,
2013-08-23 10:44:00,86.9,66.6,28.47,SSE,149,2.7,6.3,51,0.00,,---,0.00,VWS V14.01,2013-08-23 15:44:00,
2013-08-23 10:49:00,87.1,67.3,28.47,SE,141,0.0,6.3,52,0.00,,---,0.00,VWS V14.01,2013-08-23 15:49:00,
2013-08-23 10:55:00,87.4,67.1,28.47,SSE,160,3.6,6.3,51,0.00,,---,0.00,VWS V14.01,2013-08-23 15:55:00,
2013-08-23 11:00:00,88.0,67.0,28.47,SSE,149,2.7,6.3,50,0.00,,---,0.00,VWS V14.01,2013-08-23 16:00:00,
2013-08-23 11:05:00,88.5,67.5,28.47,South,171,0.0,5.8,50,0.00,,---,0.00,VWS V14.01,2013-08-23 16:05:00,
2013-08-23 11:10:00,89.1,66.8,28.47,SE,128,3.1,5.8,48,0.00,,---,0.00,VWS V14.01,2013-08-23 16:10:00,
2013-08-23 11:15:00,89.4,66.6,28.47,SSE,149,3.1,5.8,47,0.00,,---,0.00,VWS V14.01,2013-08-23 16:15:00,
2013-08-23 11:20:00,89.8,66.3,28.47,NNW,329,0.0,5.8,46,0.00,,---,0.00,VWS V14.01,2013-08-23 16:20:00,
2013-08-23 11:25:00,90.1,65.9,28.47,North,0,5.4,5.8,45,0.00,,---,0.00,VWS V14.01,2013-08-23 16:25:00,
2013-08-23 11:30:00,90.1,65.3,28.47,West,281,2.7,5.8,44,0.00,,---,0.00,VWS V14.01,2013-08-23 16:30:00,
2013-08-23 11:35:00,89.8,64.3,28.47,NNE,12,2.7,5.8,43,0.00,,---,0.00,VWS V14.01,2013-08-23 16:35:00,
2013-08-23 11:40:00,89.4,64.7,28.47,ESE,122,0.0,5.8,44,0.00,,---,0.00,VWS V14.01,2013-08-23 16:40:00,
2013-08-23 11:46:00,89.2,65.1,28.47,ENE,68,3.6,5.8,45,0.00,,---,0.00,VWS V14.01,2013-08-23 16:46:00,
2013-08-23 11:51:00,89.2,65.1,28.47,NNE,30,0.0,5.8,45,0.00,,---,0.00,VWS V14.01,2013-08-23 16:51:00,
2013-08-23 11:56:00,89.1,65.6,28.44,East,98,2.2,5.8,46,0.00,,---,0.00,VWS V14.01,2013-08-23 16:56:00,
2013-08-23 12:01:00,89.1,65.6,28.44,ENE,71,2.7,4.0,46,0.00,,---,0.00,VWS V14.01,2013-08-23 17:01:00,
2013-08-23 12:06:00,88.9,64.8,28.44,SSE,151,3.1,6.3,45,0.00,,---,0.00,VWS V14.01,2013-08-23 17:06:00,
2013-08-23 12:11:00,88.7,64.7,28.44,NNE,32,4.0,8.7,45,0.00,,---,0.00,VWS V14.01,2013-08-23 17:11:00,
2013-08-23 12:16:00,88.3,64.3,28.44,ESE,123,2.2,8.7,45,0.00,,---,0.00,VWS V14.01,2013-08-23 17:16:00,
2013-08-23 12:21:00,88.2,64.8,28.44,East,98,4.0,8.7,46,0.00,,---,0.00,VWS V14.01,2013-08-23 17:21:00,
2013-08-23 12:26:00,88.0,64.0,28.44,ESE,117,3.1,8.7,45,0.00,,---,0.00,VWS V14.01,2013-08-23 17:26:00,
2013-08-23 12:32:00,87.8,63.8,28.44,NNW,344,0.0,8.7,45,0.00,,---,0.00,VWS V14.01,2013-08-23 17:32:00,
2013-08-23 12:37:00,87.6,64.3,28.44,ESE,103,4.0,8.7,46,0.00,,---,0.00,VWS V14.01,2013-08-23 17:37:00,
2013-08-23 12:42:00,87.6,64.3,28.44,NW,325,0.0,8.7,46,0.00,,---,0.00,VWS V14.01,2013-08-23 17:42:00,
2013-08-23 12:47:00,87.6,64.9,28.44,SSE,157,4.0,8.7,47,0.00,,---,0.00,VWS V14.01,2013-08-23 17:47:00,
2013-08-23 12:52:00,88.0,64.6,28.44,SE,133,3.6,8.7,46,0.00,,---,0.00,VWS V14.01,2013-08-23 17:52:00,
2013-08-23 12:57:00,88.5,64.5,28.44,NNW,342,4.0,8.7,45,0.00,,---,0.00,VWS V14.01,2013-08-23 17:57:00,
2013-08-23 13:02:00,88.9,64.2,28.44,ESE,107,4.0,6.3,44,0.00,,---,0.00,VWS V14.01,2013-08-23 18:02:00,
2013-08-23 13:07:00,89.4,65.9,28.44,South,169,4.0,6.3,46,0.00,,---,0.00,VWS V14.01,2013-08-23 18:07:00,
2013-08-23 13:12:00,89.8,63.7,28.44,NNW,346,0.0,6.3,42,0.00,,---,0.00,VWS V14.01,2013-08-23 18:12:00,
2013-08-23 13:17:00,89.8,63.7,28.44,SE,143,3.1,9.6,42,0.00,,---,0.00,VWS V14.01,2013-08-23 18:17:00,
2013-08-23 13:23:00,89.6,63.5,28.44,NNW,330,4.9,9.6,42,0.00,,---,0.00,VWS V14.01,2013-08-23 18:23:00,
2013-08-23 13:28:00,89.4,64.0,28.44,NNE,32,3.6,9.6,43,0.00,,---,0.00,VWS V14.01,2013-08-23 18:28:00,
2013-08-23 13:33:00,89.8,64.3,28.44,South,169,4.0,9.6,43,0.00,,---,0.00,VWS V14.01,2013-08-23 18:33:00,
2013-08-23 13:38:00,90.1,64.7,28.44,ESE,112,2.7,9.6,43,0.00,,---,0.00,VWS V14.01,2013-08-23 18:38:00,
2013-08-23 13:43:00,90.5,65.0,28.44,South,169,3.1,9.6,43,0.00,,---,0.00,VWS V14.01,2013-08-23 18:43:00,
2013-08-23 13:48:00,91.0,65.4,28.44,SSE,167,2.7,9.6,43,0.00,,---,0.00,VWS V14.01,2013-08-23 18:48:00,
2013-08-23 13:53:00,91.8,64.0,28.41,South,171,5.8,9.6,40,0.00,,---,0.00,VWS V14.01,2013-08-23 18:53:00,
2013-08-23 13:58:00,92.3,64.5,28.41,South,171,5.4,12.3,40,0.00,,---,0.00,VWS V14.01,2013-08-23 18:58:00,
2013-08-23 14:03:00,92.5,64.7,28.41,SE,142,4.0,8.7,40,0.00,,---,0.00,VWS V14.01,2013-08-23 19:03:00,
2013-08-23 14:09:00,92.5,63.2,28.41,ESE,116,4.9,8.7,38,0.00,,---,0.00,VWS V14.01,2013-08-23 19:09:00,
2013-08-23 14:14:00,91.8,62.6,28.41,ESE,120,8.3,8.7,38,0.00,,---,0.00,VWS V14.01,2013-08-23 19:14:00,
2013-08-23 14:19:00,91.0,62.7,28.41,ESE,109,4.9,8.7,39,0.00,,---,0.00,VWS V14.01,2013-08-23 19:19:00,
2013-08-23 14:24:00,90.3,62.7,28.41,ESE,102,0.0,8.7,40,0.00,,---,0.00,VWS V14.01,2013-08-23 19:24:00,
2013-08-23 14:29:00,89.8,63.0,28.41,East,101,3.1,8.7,41,0.00,,---,0.00,VWS V14.01,2013-08-23 19:29:00,
2013-08-23 14:34:00,89.6,62.8,28.41,ESE,105,2.7,8.7,41,0.00,,---,0.00,VWS V14.01,2013-08-23 19:34:00,
2013-08-23 14:39:00,89.2,63.2,28.41,ESE,120,2.7,8.7,42,0.00,,---,0.00,VWS V14.01,2013-08-23 19:39:00,
2013-08-23 14:44:00,88.9,63.5,28.41,South,178,2.7,8.7,43,0.00,,---,0.00,VWS V14.01,2013-08-23 19:44:00,
2013-08-23 14:49:00,88.7,63.3,28.41,ESE,116,4.0,8.7,43,0.00,,---,0.00,VWS V14.01,2013-08-23 19:49:00,
2013-08-23 14:54:00,88.9,62.8,28.41,SSE,155,4.0,10.5,42,0.00,,---,0.00,VWS V14.01,2013-08-23 19:54:00,
2013-08-23 15:00:00,88.9,62.8,28.41,SSE,147,5.4,10.5,42,0.00,,---,0.00,VWS V14.01,2013-08-23 20:00:00,
2013-08-23 15:05:00,88.9,62.8,28.41,SE,134,3.6,6.3,42,0.00,,---,0.00,VWS V14.01,2013-08-23 20:05:00,
2013-08-23 15:10:00,88.9,64.2,28.41,West,272,0.0,6.3,44,0.00,,---,0.00,VWS V14.01,2013-08-23 20:10:00,
2013-08-23 15:15:00,88.9,64.2,28.41,South,183,7.6,7.6,44,0.00,,---,0.00,VWS V14.01,2013-08-23 20:15:00,
2013-08-23 15:20:00,89.1,64.3,28.41,East,96,3.6,8.3,44,0.00,,---,0.00,VWS V14.01,2013-08-23 20:20:00,
2013-08-23 15:25:00,89.6,64.8,28.41,South,179,4.0,8.3,44,0.00,,---,0.00,VWS V14.01,2013-08-23 20:25:00,
2013-08-23 15:30:00,90.9,66.6,28.41,ESE,103,5.4,8.3,45,0.00,,---,0.00,VWS V14.01,2013-08-23 20:30:00,
2013-08-23 15:35:00,91.8,64.7,28.41,ESE,117,6.3,8.7,41,0.00,,---,0.00,VWS V14.01,2013-08-23 20:35:00,
2013-08-23 15:40:00,92.3,64.5,28.41,South,182,7.6,8.7,40,0.00,,---,0.00,VWS V14.01,2013-08-23 20:40:00,
2013-08-23 15:46:00,92.5,63.9,28.41,East,99,2.7,8.7,39,0.00,,---,0.00,VWS V14.01,2013-08-23 20:46:00,
2013-08-23 15:51:00,92.8,65.0,28.41,NNE,33,2.7,8.7,40,0.00,,---,0.00,VWS V14.01,2013-08-23 20:51:00,
2013-08-23 15:56:00,93.0,64.4,28.41,South,184,4.0,8.7,39,0.00,,---,0.00,VWS V14.01,2013-08-23 20:56:00,
2013-08-23 16:01:00,92.7,63.4,28.41,NNE,16,2.7,7.2,38,0.00,,---,0.00,VWS V14.01,2013-08-23 21:01:00,
2013-08-23 16:06:00,91.8,62.6,28.41,SE,135,4.0,7.2,38,0.00,,---,0.00,VWS V14.01,2013-08-23 21:06:00,
2013-08-23 16:11:00,91.6,62.4,28.41,ESE,112,4.0,7.6,38,0.00,,---,0.00,VWS V14.01,2013-08-23 21:11:00,
2013-08-23 16:16:00,91.6,62.4,28.41,SSE,160,4.0,7.6,38,0.00,,---,0.00,VWS V14.01,2013-08-23 21:16:00,
2013-08-23 16:21:00,91.6,63.1,28.41,WSW,244,3.1,7.6,39,0.00,,---,0.00,VWS V14.01,2013-08-23 21:21:00,
2013-08-23 16:26:00,91.8,63.3,28.41,ESE,116,4.9,8.3,39,0.00,,---,0.00,VWS V14.01,2013-08-23 21:26:00,
2013-08-23 16:32:00,91.9,63.5,28.41,East,83,2.2,8.7,39,0.00,,---,0.00,VWS V14.01,2013-08-23 21:32:00,
2013-08-23 16:37:00,91.9,62.7,28.41,ESE,115,4.9,8.7,38,0.00,,---,0.00,VWS V14.01,2013-08-23 21:37:00,
2013-08-23 16:42:00,91.9,62.7,28.41,SE,139,7.6,8.7,38,0.00,,---,0.00,VWS V14.01,2013-08-23 21:42:00,
2013-08-23 16:47:00,91.4,62.2,28.41,North,353,0.0,8.7,38,0.00,,---,0.00,VWS V14.01,2013-08-23 21:47:00,
2013-08-23 16:52:00,91.0,62.7,28.41,South,178,3.1,8.7,39,0.00,,---,0.00,VWS V14.01,2013-08-23 21:52:00,
2013-08-23 16:57:00,90.7,63.1,28.38,SSE,148,2.7,8.7,40,0.00,,---,0.00,VWS V14.01,2013-08-23 21:57:00,
2013-08-23 17:02:00,90.5,62.9,28.38,East,101,8.1,8.1,40,0.00,,---,0.00,VWS V14.01,2013-08-23 22:02:00,
2013-08-23 17:07:00,90.3,62.7,28.38,East,97,0.0,8.1,40,0.00,,---,0.00,VWS V14.01,2013-08-23 22:07:00,
2013-08-23 17:12:00,90.3,63.5,28.41,SSE,166,2.2,8.1,41,0.00,,---,0.00,VWS V14.01,2013-08-23 22:12:00,
2013-08-23 17:17:00,90.1,63.3,28.41,East,95,3.1,8.1,41,0.00,,---,0.00,VWS V14.01,2013-08-23 22:17:00,
2013-08-23 17:23:00,90.1,64.0,28.38,ESE,113,3.6,8.1,42,0.00,,---,0.00,VWS V14.01,2013-08-23 22:23:00,
2013-08-23 17:28:00,90.0,63.8,28.38,South,189,2.7,8.1,42,0.00,,---,0.00,VWS V14.01,2013-08-23 22:28:00,
2013-08-23 17:33:00,89.6,64.2,28.38,South,180,3.1,8.1,43,0.00,,---,0.00,VWS V14.01,2013-08-23 22:33:00,
2013-08-23 17:38:00,89.4,64.7,28.38,NNE,15,2.7,8.1,44,0.00,,---,0.00,VWS V14.01,2013-08-23 22:38:00,
2013-08-23 17:43:00,89.2,65.8,28.38,NNW,329,2.7,8.1,46,0.00,,---,0.00,VWS V14.01,2013-08-23 22:43:00,
2013-08-23 17:48:00,89.1,65.6,28.38,SW,222,2.7,8.1,46,0.00,,---,0.00,VWS V14.01,2013-08-23 22:48:00,
2013-08-23 17:53:00,88.9,65.4,28.38,South,169,2.7,8.1,46,0.00,,---,0.00,VWS V14.01,2013-08-23 22:53:00,
2013-08-23 17:58:00,88.9,66.1,28.38,South,171,2.7,8.1,47,0.00,,---,0.00,VWS V14.01,2013-08-23 22:58:00,
2013-08-23 18:04:00,88.9,66.1,28.38,ESE,123,2.7,5.4,47,0.00,,---,0.00,VWS V14.01,2013-08-23 23:04:00,
2013-08-23 18:09:00,88.7,66.5,28.38,ENE,68,4.0,5.4,48,0.00,,---,0.00,VWS V14.01,2013-08-23 23:09:00,
2013-08-23 18:14:00,88.5,66.3,28.38,ENE,61,2.7,5.4,48,0.00,,---,0.00,VWS V14.01,2013-08-23 23:14:00,
2013-08-23 18:19:00,88.3,66.2,28.38,SE,144,3.1,5.4,48,0.00,,---,0.00,VWS V14.01,2013-08-23 23:19:00,
2013-08-23 18:24:00,88.2,66.6,28.38,ESE,120,4.0,5.4,49,0.00,,---,0.00,VWS V14.01,2013-08-23 23:24:00,
2013-08-23 18:29:00,88.0,66.4,28.38,North,6,3.1,8.3,49,0.00,,---,0.00,VWS V14.01,2013-08-23 23:29:00,
2013-08-23 18:34:00,87.8,66.3,28.38,North,357,0.0,8.3,49,0.00,,---,0.00,VWS V14.01,2013-08-23 23:34:00,
2013-08-23 18:39:00,87.8,66.3,28.38,WNW,284,2.7,8.3,49,0.00,,---,0.00,VWS V14.01,2013-08-23 23:39:00,
2013-08-23 18:44:00,87.8,66.3,28.38,SSE,148,3.6,8.3,49,0.00,,---,0.00,VWS V14.01,2013-08-23 23:44:00,
2013-08-23 18:50:00,87.8,66.9,28.38,ESE,104,3.1,8.3,50,0.00,,---,0.00,VWS V14.01,2013-08-23 23:50:00,
2013-08-23 18:55:00,87.6,66.7,28.38,NE,55,2.7,8.3,50,0.00,,---,0.00,VWS V14.01,2013-08-23 23:55:00,
2013-08-23 19:00:00,87.6,66.7,28.38,SE,144,2.7,8.3,50,0.00,,---,0.00,VWS V14.01,2013-08-24 00:00:00,
2013-08-23 19:05:00,87.6,67.3,28.38,East,85,0.0,3.6,51,0.00,,---,0.00,VWS V14.01,2013-08-24 00:05:00,
2013-08-23 19:10:00,87.6,67.3,28.38,NNE,17,2.7,4.5,51,0.00,,---,0.00,VWS V14.01,2013-08-24 00:10:00,
2013-08-23 19:15:00,87.4,67.1,28.38,North,11,3.1,5.4,51,0.00,,---,0.00,VWS V14.01,2013-08-24 00:15:00,
2013-08-23 19:20:00,87.4,67.1,28.38,SSE,157,3.6,7.2,51,0.00,,---,0.00,VWS V14.01,2013-08-24 00:20:00,
2013-08-23 19:25:00,87.3,66.9,28.38,SE,137,2.7,7.6,51,0.00,,---,0.00,VWS V14.01,2013-08-24 00:25:00,
2013-08-23 19:30:00,87.3,66.9,28.38,SE,126,2.7,7.6,51,0.00,,---,0.00,VWS V14.01,2013-08-24 00:30:00,
2013-08-23 19:36:00,87.1,66.8,28.38,NE,43,3.6,7.6,51,0.00,,---,0.00,VWS V14.01,2013-08-24 00:36:00,
2013-08-23 19:41:00,86.7,66.4,28.38,SW,216,2.7,7.6,51,0.00,,---,0.00,VWS V14.01,2013-08-24 00:41:00,
2013-08-23 19:46:00,86.5,66.8,28.38,SE,138,0.0,7.6,52,0.00,,---,0.00,VWS V14.01,2013-08-24 00:46:00,
2013-08-23 19:51:00,86.2,66.5,28.38,NE,46,3.6,7.6,52,0.00,,---,0.00,VWS V14.01,2013-08-24 00:51:00,
2013-08-23 19:56:00,85.8,66.7,28.38,ESE,121,2.7,7.6,53,0.00,,---,0.00,VWS V14.01,2013-08-24 00:56:00,
2013-08-23 20:01:00,85.5,66.9,28.38,SSW,198,3.1,4.0,54,0.00,,---,0.00,VWS V14.01,2013-08-24 01:01:00,
2013-08-23 20:06:00,85.1,67.1,28.38,SSE,165,3.1,5.8,55,0.00,,---,0.00,VWS V14.01,2013-08-24 01:06:00,
2013-08-23 20:11:00,84.7,67.3,28.38,East,101,3.6,7.6,56,0.00,,---,0.00,VWS V14.01,2013-08-24 01:11:00,
2013-08-23 20:16:00,84.6,67.2,28.38,East,99,5.8,7.6,56,0.00,,---,0.00,VWS V14.01,2013-08-24 01:16:00,
2013-08-23 20:21:00,84.4,67.5,28.38,South,181,4.0,7.6,57,0.00,,---,0.00,VWS V14.01,2013-08-24 01:21:00,
2013-08-23 20:27:00,84.0,67.7,28.38,SE,128,2.7,7.6,58,0.00,,---,0.00,VWS V14.01,2013-08-24 01:27:00,
2013-08-23 20:32:00,83.8,68.0,28.38,NE,39,4.0,7.6,59,0.00,,---,0.00,VWS V14.01,2013-08-24 01:32:00,
2013-08-23 20:37:00,83.7,67.8,28.38,SE,124,3.6,7.6,59,0.00,,---,0.00,VWS V14.01,2013-08-24 01:37:00,
2013-08-23 20:42:00,83.5,68.2,28.38,NE,41,0.0,7.6,60,0.00,,---,0.00,VWS V14.01,2013-08-24 01:42:00,
2013-08-23 20:47:00,83.3,68.0,28.38,North,349,3.1,7.6,60,0.00,,---,0.00,VWS V14.01,2013-08-24 01:47:00,
2013-08-23 20:52:00,83.1,68.3,28.38,ESE,106,3.1,7.6,61,0.00,,---,0.00,VWS V14.01,2013-08-24 01:52:00,
2013-08-23 20:57:00,82.9,68.1,28.38,ESE,118,2.2,7.6,61,0.00,,---,0.00,VWS V14.01,2013-08-24 01:57:00,
2013-08-23 21:02:00,82.8,68.4,28.38,South,186,0.0,5.8,62,0.00,,---,0.00,VWS V14.01,2013-08-24 02:02:00,
2013-08-23 21:08:00,82.6,68.2,28.41,ESE,111,4.0,5.8,62,0.00,,---,0.00,VWS V14.01,2013-08-24 02:08:00,
2013-08-23 21:13:00,82.4,68.1,28.41,SSE,152,9.6,10.5,62,0.00,,---,0.00,VWS V14.01,2013-08-24 02:13:00,
2013-08-23 21:18:00,82.4,68.6,28.41,SE,128,2.7,10.5,63,0.00,,---,0.00,VWS V14.01,2013-08-24 02:18:00,
2013-08-23 21:23:00,82.2,68.4,28.41,SE,125,3.1,10.5,63,0.00,,---,0.00,VWS V14.01,2013-08-24 02:23:00,
2013-08-23 21:28:00,82.0,68.7,28.41,West,274,3.1,10.5,64,0.00,,---,0.00,VWS V14.01,2013-08-24 02:28:00,
2013-08-23 21:33:00,81.9,68.5,28.41,SE,127,3.1,10.5,64,0.00,,---,0.00,VWS V14.01,2013-08-24 02:33:00,
2013-08-23 21:38:00,81.7,68.8,28.41,SSE,148,2.7,10.5,65,0.00,,---,0.00,VWS V14.01,2013-08-24 02:38:00,
2013-08-23 21:43:00,81.7,68.8,28.41,SSW,194,4.9,10.5,65,0.00,,---,0.00,VWS V14.01,2013-08-24 02:43:00,
2013-08-23 21:48:00,81.5,68.6,28.41,SSE,161,2.7,10.5,65,0.00,,---,0.00,VWS V14.01,2013-08-24 02:48:00,
2013-08-23 21:53:00,81.3,68.9,28.41,SSE,151,3.1,10.5,66,0.00,,---,0.00,VWS V14.01,2013-08-24 02:53:00,
2013-08-23 21:59:00,81.3,68.9,28.41,South,175,3.6,10.5,66,0.00,,---,0.00,VWS V14.01,2013-08-24 02:59:00,
2013-08-23 22:04:00,81.1,68.7,28.41,ESE,108,3.1,7.2,66,0.00,,---,0.00,VWS V14.01,2013-08-24 03:04:00,
2013-08-23 22:09:00,81.0,68.5,28.41,ESE,113,2.7,7.2,66,0.00,,---,0.00,VWS V14.01,2013-08-24 03:09:00,
2013-08-23 22:14:00,81.0,69.0,28.41,SE,137,0.0,7.2,67,0.00,,---,0.00,VWS V14.01,2013-08-24 03:14:00,
2013-08-23 22:19:00,80.8,68.8,28.41,SE,138,0.0,7.2,67,0.00,,---,0.00,VWS V14.01,2013-08-24 03:19:00,
2013-08-23 22:24:00,80.8,68.8,28.41,SE,135,4.5,7.2,67,0.00,,---,0.00,VWS V14.01,2013-08-24 03:24:00,
2013-08-23 22:29:00,80.6,68.6,28.41,SE,138,6.3,7.2,67,0.00,,---,0.00,VWS V14.01,2013-08-24 03:29:00,
2013-08-23 22:34:00,80.6,69.1,28.41,SE,141,4.9,7.2,68,0.00,,---,0.00,VWS V14.01,2013-08-24 03:34:00,
2013-08-23 22:39:00,80.4,68.9,28.41,ESE,123,2.2,7.2,68,0.00,,---,0.00,VWS V14.01,2013-08-24 03:39:00,
2013-08-23 22:45:00,80.4,68.9,28.41,SE,141,4.0,7.2,68,0.00,,---,0.00,VWS V14.01,2013-08-24 03:45:00,
2013-08-23 22:50:00,80.2,68.7,28.41,ESE,105,3.1,7.2,68,0.00,,---,0.00,VWS V14.01,2013-08-24 03:50:00,
2013-08-23 22:55:00,80.1,69.0,28.41,SE,138,3.1,7.2,69,0.00,,---,0.00,VWS V14.01,2013-08-24 03:55:00,
2013-08-23 23:00:00,80.1,69.0,28.41,South,182,3.6,3.6,69,0.00,,---,0.00,VWS V14.01,2013-08-24 04:00:00,
2013-08-23 23:01:00,80.1,69.0,28.41,SE,129,0.0,3.6,69,0.00,,---,0.00,VWS V14.01,2013-08-24 04:01:00,
2013-08-23 23:02:00,80.1,69.0,28.41,ENE,67,2.7,3.6,69,0.00,,---,0.00,VWS V14.01,2013-08-24 04:02:00,
2013-08-23 23:07:00,79.9,68.8,28.41,SSE,163,2.2,3.6,69,0.00,,---,0.00,VWS V14.01,2013-08-24 04:07:00,
2013-08-23 23:12:00,79.9,68.8,28.41,SE,124,2.7,5.4,69,0.00,,---,0.00,VWS V14.01,2013-08-24 04:12:00,
2013-08-23 23:17:00,79.9,68.8,28.41,SSE,155,0.0,7.6,69,0.00,,---,0.00,VWS V14.01,2013-08-24 04:17:00,
2013-08-23 23:22:00,79.7,68.6,28.44,SE,128,2.7,7.6,69,0.00,,---,0.00,VWS V14.01,2013-08-24 04:22:00,
2013-08-23 23:27:00,79.7,68.6,28.44,South,174,0.0,7.6,69,0.00,,---,0.00,VWS V14.01,2013-08-24 04:27:00,
2013-08-23 23:33:00,79.5,68.9,28.44,ESE,106,0.0,7.6,70,0.00,,---,0.00,VWS V14.01,2013-08-24 04:33:00,
2013-08-23 23:38:00,79.3,68.7,28.44,SE,146,4.0,7.6,70,0.00,,---,0.00,VWS V14.01,2013-08-24 04:38:00,
2013-08-23 23:43:00,79.3,68.7,28.44,SE,125,2.2,7.6,70,0.00,,---,0.00,VWS V14.01,2013-08-24 04:43:00,
2013-08-23 23:48:00,79.2,68.5,28.44,SE,134,2.7,7.6,70,0.00,,---,0.00,VWS V14.01,2013-08-24 04:48:00,
2013-08-23 23:53:00,79.2,68.5,28.44,SE,131,2.7,7.6,70,0.00,,---,0.00,VWS V14.01,2013-08-24 04:53:00,
2013-08-23 23:58:00,79.0,68.4,28.44,East,101,3.1,7.6,70,0.00,,---,0.00,VWS V14.01,2013-08-24 04:58:00,